OBJECT B, 62186

Orbit data source: Space-Track

You're viewing an Uncataloged Satellite

Recently launched and/or uncataloged satellites may have evolving metadata. Metadata may include but not limited to: Owner, Maufacturer, Bus, Motor, and Mission.

OBJECT B, 62186 is a satellite owned by Zhongguo Xingwang (CN) in LEO that was launched on Sat, 30 Nov 2024 UTC via a CHANG ZHENG 12 launch vehicle from the Wenchang Satellite Launch Center (WSC). Unknown objects in Earth's orbit typically refer to objects detected orbiting the Earth but have not yet been identified or cataloged. These objects could be anything from previously untracked satellites, spent rocket stages, debris from satellite collisions, or even natural meteoroids temporarily captured by Earth's gravity.

Loading next visibility...
Identifier
62186, 2024-226B
Orbit
LEO
Country
Flag of CNCN / PRC
Related business
Manufacturer
YINNT
Mission
Operational Civil Communications
Bus & Motor
Unknown
Mass
~300 kg wet, ~300 kg dry
Launch date (UTC)
2024-11-30 (2 years ago)
Launch vehicle
CHANG ZHENG 12
Launch site
Wenchang Satellite Launch Center (WSC)
Object type
Unknown
Shape & HBR
Box + 2 Pan, 1.3 m
Radar Cross Section
2.320 m², Large (>1 m²)

Expand to show TLE details & history
Last TLE update: 7 hours ago

TLE from 7 hours ago
0 OBJECT B
1 62186U 24226B   26171.55784745 -.00000088  00000-0  72394-4 0  9997
2 62186  50.0053 316.4869 0012456  87.3748 272.8555 13.41501317 76160
Epoch: 2026-06-20T13:23Z
TLE epoch observation values (Epoch: 2026-06-20T13:23:18.019Z)
Latitude
-0.00004°
Longitude
-153.10897°
Altitude
1,103.749 km
Speed
7.302 km/s
True Right ascension
21h 05m 56s
True Declination
0° 00' 00"
Sunlit
Object was in full shadow at epoch
Visualization orbit readout
Latitude
Unknown
Longitude
Unknown
Altitude
Unknown
Speed
Unknown
Apparent Right ascension
Unknown
Apparent Declination
Unknown
Sunlit
N/A
Visualization observer readout
Local Sidereal Time
07:24:29
Azimuth
Unknown
Elevation
Unknown
Doppler factor
Unknown
Orbital elements
Apogee altitude
1,113.721 km
Perigee altitude
1,095.08 km
Semi-major axis
7,482.538 km
Eccentricity
0.00125
Inclination
50.0053°
RAAN
316.4869°
Arg. of periapsis
87.3748°
True anomaly
272.71293°
Mean anomaly
272.8555°
Eccentric anomaly
272.78422°
Mean motion
3.35328 °/min
Orbital period
107.36 mins
BSTAR
0.000072394
Loading maneuver chart data...
Computing Atmospheric mass density...
Loading historical data...
Loading historical data...
Loading historical data...
Loading historical data...
Loading historical data...
Loading historical data...
Loading historical data...
Other satellites on launch #226 in the year 2024 (2024-11-30 UTC)

Documentation

Showing up to 5 results
|